TimePDT,TemperatureF,Dew PointF,Humidity,Sea Level PressureIn,VisibilityMPH,Wind Direction,Wind SpeedMPH,Gust SpeedMPH,PrecipitationIn,Events,Conditions,WindDirDegrees,DateUTC
12:53 AM,36.0,24.1,62,30.14,10.0,North,6.9,-,N/A,,Clear,350,2013-10-27 07:53:00
1:53 AM,37.9,23.0,55,30.11,10.0,North,3.5,-,N/A,,Clear,10,2013-10-27 08:53:00
2:53 AM,33.1,21.9,64,30.09,10.0,Calm,Calm,-,N/A,,Clear,0,2013-10-27 09:53:00
3:53 AM,30.0,21.0,69,30.06,10.0,North,5.8,-,N/A,,Clear,360,2013-10-27 10:53:00
4:53 AM,34.0,24.1,67,30.03,10.0,NE,6.9,-,N/A,,Scattered Clouds,50,2013-10-27 11:53:00
5:53 AM,32.0,25.0,75,30.06,10.0,Calm,Calm,-,N/A,,Scattered Clouds,0,2013-10-27 12:53:00
6:53 AM,30.9,23.0,72,30.07,10.0,Calm,Calm,-,N/A,,Clear,0,2013-10-27 13:53:00
7:53 AM,28.0,21.0,75,30.08,10.0,Calm,Calm,-,N/A,,Clear,0,2013-10-27 14:53:00
8:53 AM,34.0,25.0,70,30.08,10.0,Calm,Calm,-,N/A,,Clear,0,2013-10-27 15:53:00
9:53 AM,43.0,28.9,58,30.05,10.0,SSW,5.8,-,N/A,,Clear,210,2013-10-27 16:53:00
10:53 AM,48.9,30.0,48,30.01,10.0,Calm,Calm,-,N/A,,Clear,0,2013-10-27 17:53:00
11:53 AM,57.0,30.9,37,29.92,10.0,South,8.1,-,N/A,,Clear,190,2013-10-27 18:53:00
12:53 PM,60.1,34.0,38,29.86,10.0,SW,4.6,-,N/A,,Clear,220,2013-10-27 19:53:00
1:53 PM,68.0,24.1,19,29.77,10.0,NW,20.7,28.8,N/A,,Clear,320,2013-10-27 20:53:00
2:05 PM,66.2,24.8,21,29.75,7.0,NNW,24.2,29.9,N/A,,Clear,330,2013-10-27 21:05:00
2:53 PM,57.0,35.1,44,29.82,8.0,North,39.1,50.6,N/A,,Clear,350,2013-10-27 21:53:00
3:53 PM,55.9,32.0,40,29.83,10.0,North,29.9,40.3,N/A,,Clear,350,2013-10-27 22:53:00
4:53 PM,55.0,33.1,43,29.79,10.0,North,15.0,-,N/A,,Mostly Cloudy,10,2013-10-27 23:53:00
5:53 PM,50.0,30.0,46,29.82,10.0,NNW,17.3,-,N/A,,Overcast,340,2013-10-28 00:53:00
6:53 PM,46.0,34.0,63,29.83,10.0,North,11.5,-,0.00,,Mostly Cloudy,10,2013-10-28 01:53:00
7:53 PM,44.1,35.1,71,29.83,10.0,NNE,11.5,-,0.00,Rain,Light Rain,20,2013-10-28 02:53:00
8:53 PM,44.1,35.1,71,29.80,10.0,NNE,9.2,-,0.00,,Mostly Cloudy,20,2013-10-28 03:53:00
9:53 PM,45.0,35.1,68,29.78,10.0,North,13.8,-,0.00,,Mostly Cloudy,350,2013-10-28 04:53:00
10:53 PM,44.1,35.1,71,29.75,10.0,North,15.0,-,N/A,,Mostly Cloudy,350,2013-10-28 05:53:00
11:53 PM,44.1,34.0,68,29.75,10.0,North,10.4,16.1,N/A,,Overcast,360,2013-10-28 06:53:00